Regional Weather Roundup
Issued by NWS Kansas City/Pleasant Hill, MO

Home | Current Version | Previous Version | Graphics & Text | Print | Product List | Glossary Off
Versions: 1 2 3 4 5 6 7 8 9 10 11 12 13 14 15 16 17 18 19 20 21 22 23 24 25 26 27 28

000
ASUS43 KEAX 041010
RWREAX

WEATHER ROUNDUP FOR EASTERN KANSAS AND NORTHWEST MISSOURI
NATIONAL WEATHER SERVICE KANSAS CITY/PLEASANT HILL MO
500 AM CDT WED MAY 04 2016

KSZ040-057-103>105-MOZ028-029-037-043-041100-
...KANSAS CITY METROPOLITAN AREA...

CITY           SKY/WX    TMP DP  RH WIND       PRES   REMARKS
K.C. INTL      PTCLDY    57  43  59 NW15G22   29.85R
K.C. DOWNTOWN  CLEAR     59  43  55 W10       29.84R
LEES SUMMIT    PTCLDY    57  43  59 W8        29.84S
OLATHE - IXD   CLEAR     54  44  69 W8        29.87S
OLATHE - OJC   PTCLDY    54  43  66 NW7       29.86S
LAWRENCE       CLEAR     53  46  77 NW10      29.88R

$$

MOZ001>008-011>017-020>025-030>033-038>040-044>046-053-054-041100-
...NORTHERN AND CENTRAL MISSOURI...

CITY           SKY/WX    TMP DP  RH WIND       PRES   REMARKS
ST. JOSEPH     CLEAR     55  43  63 NW12      29.86R
MOSBY          SUNNY     57  43  58 W10       29.83R
WARRENSBURG    PTCLDY    54  45  71 SW10      29.81F
WHITEMAN AFB   PTCLDY    56  46  66 W14       29.79F
CLINTON        CLEAR     54  48  82 SW8       29.84F
SEDALIA        PTCLDY    56  46  69 SW13      29.80F
WARSAW         NOT AVBL
CHILLICOTHE      N/A     57  44  62 VRB6      29.80R
KIRKSVILLE     CLEAR     54  42  64 NW9       29.75S

$$

MOZ041-047>049-056>058-063>065-088>090-097-041100-
...EASTERN AND SOUTHERN MISSOURI...

CITY           SKY/WX    TMP DP  RH WIND       PRES   REMARKS
ST. LOUIS INTL LGT RAIN  59  42  53 W20G28    29.73F
SPIRIT OF STL  CLOUDY    56  44  64 SW16G22   29.72F
COLUMBIA       MOCLDY    55  46  71 W12       29.75F
JEFFERSON CITY CLOUDY    57  45  64 W8        29.77F
ROLLA          CLEAR     48  43  82 S13       29.78F
OSAGE BEACH    MOCLDY    55  39  54 SW8       29.82F
SPRINGFIELD    CLEAR     55  43  63 W13       29.89F
JOPLIN         CLEAR     54  45  71 SW13      29.92F
WEST PLAINS    CLEAR     45  39  79 SW5       29.89F

$$

IAZ060-094-KSZ022-034>040-054-083-096-NEZ052-066-093-041100-
...KANSAS...SOUTHEAST NEBRASKA AND IOWA...

CITY           SKY/WX    TMP DP  RH WIND       PRES   REMARKS
TOPEKA         CLEAR     53  45  74 W8        29.90R
MANHATTAN      CLEAR     54  44  69 VRB3      29.94R
EMPORIA        CLEAR     53  44  71 W8        29.92F
CHANUTE        CLEAR     52  45  77 W7        29.92F
WICHITA        CLEAR     54  45  71 W10       29.99S
OMAHA          CLEAR     49  39  68 N7        29.93R
LINCOLN        CLEAR     52  40  63 NW8       29.97R
FALLS CITY     CLEAR     51  43  74 NW8       29.89R
LAMONI         CLEAR     51  37  58 N12       29.81R
DES MOINES     PTCLDY    53  34  48 N9        29.83R

$$





USA.gov is the U.S. government's official web portal to all federal, state and local government web resources and services.